Flag for Algeria Weather past 2 weeks in Constantine, Algeria

Now
68 °F

Passing clouds.


Feels Like: 68 °F
Forecast: 47 / 73 °F
Wind: 15 mph from North

Location: Constantine Airport

Current Time: Oct 24, 2014 at 3:56:36 PM

Latest Report: Oct 24, 2014 at 3:30 PM


Visibility: N/A

Pressure: 30.07 "Hg

Humidity: 35%

Dew point: 39 °F

Location of ConstantineLocation

Historic Weather in Constantine — Graph

°F

Constantine temperature yesterday

Maximum temperature yesterday: 66 °F (at 3:30 PM)
Minimum temperature yesterday: 52 °F (at 3:00 AM)
Average temperature yesterday: 58 °F

Past Weeks' High & Low Weather Summary

 TemperatureHumidityPressure
High95 °F (Oct 10, 2:00 PM)100% (Oct 14, 6:00 AM)30.33 "Hg (Oct 14, 6:00 AM)
Low50 °F (Oct 16, 6:30 AM)14% (Oct 10, 4:00 PM)29.77 "Hg (Oct 14, 4:00 PM)
Average69 °F51%30.12 "Hg
* Reported Oct 9 2:00 PM — Oct 24 2:30 PM, Constantine, Weather by CustomWeather, © 2014

Note: Actual official high and low records may vary slightly from our data, if they occured in-between our weather recording intervals... More about our weather records

Advertising

Constantine weather history for previous 24 hours

 ConditionsComfort  
Time TempWeatherWind HumidityBarometerVisibility
2:30 PM
Oct 24
68 °FScattered clouds.21 mph40%30.07 "HgN/A
2:00 PM66 °FScattered clouds.18 mph56%30.07 "HgN/A
1:30 PM68 °FPartly sunny.18 mph53%30.07 "HgN/A
1:00 PM70 °FScattered clouds.15 mph50%30.07 "HgN/A
12:30 PM70 °FScattered clouds.16 mph50%30.07 "HgN/A
12:00 PM68 °FScattered clouds.16 mph49%30.07 "HgN/A
11:30 AM70 °FScattered clouds.12 mph50%30.09 "HgN/A
11:00 AM68 °FScattered clouds.14 mph49%30.09 "HgN/A
10:30 AM63 °FScattered clouds.10 mph64%30.09 "HgN/A
10:00 AM66 °FScattered clouds.10 mph60%30.09 "HgN/A
9:30 AM64 °FScattered clouds.8 mph60%30.09 "HgN/A
9:00 AM61 °FScattered clouds.9 mph68%30.09 "HgN/A
8:30 AM57 °FPartly sunny.7 mph77%30.07 "HgN/A
8:00 AM59 °FPartly sunny.6 mph72%30.07 "HgN/A
7:30 AM59 °FBroken clouds.5 mph72%30.07 "HgN/A
7:00 AM55 °FBroken clouds.8 mph77%30.07 "HgN/A
6:30 AM55 °FPassing clouds.3 mph77%30.04 "HgN/A
6:00 AM55 °FPassing clouds.5 mph77%30.04 "HgN/A
5:30 AM55 °FPassing clouds.8 mph77%30.04 "HgN/A
5:00 AM57 °FPassing clouds.7 mph72%30.04 "HgN/A
4:30 AM57 °FPassing clouds.10 mph72%30.04 "HgN/A
3:00 AM59 °FPassing clouds.9 mph68%30.07 "HgN/A
2:30 AM59 °FPassing clouds.10 mph72%30.07 "HgN/A
2:00 AM59 °FPassing clouds.7 mph72%30.07 "HgN/A
1:30 AM59 °FPassing clouds.12 mph68%30.07 "HgN/A
1:00 AM59 °FPassing clouds.14 mph68%30.07 "HgN/A
12:30 AM61 °FPassing clouds.15 mph59%30.07 "HgN/A
12:00 AM61 °FPassing clouds.12 mph59%30.07 "HgN/A
11:30 PM
Oct 23
61 °FPassing clouds.16 mph63%30.07 "HgN/A
11:00 PM61 °FPassing clouds.16 mph63%30.07 "HgN/A
10:30 PM59 °FPassing clouds.10 mph68%30.09 "HgN/A
10:00 PM59 °FPassing clouds.10 mph68%30.09 "HgN/A
9:30 PM61 °FPassing clouds.13 mph63%30.09 "HgN/A
9:00 PM61 °FPassing clouds.13 mph63%30.09 "HgN/A
8:30 PM61 °FPassing clouds.12 mph63%30.09 "HgN/A
8:00 PM61 °FPassing clouds.12 mph63%30.09 "HgN/A
7:30 PM61 °FPassing clouds.9 mph59%30.09 "HgN/A
7:00 PM59 °FPassing clouds.7 mph63%30.09 "HgN/A
6:30 PM61 °FPassing clouds.14 mph59%30.09 "HgN/A
6:00 PM61 °FPassing clouds.14 mph59%30.09 "HgN/A
5:30 PM61 °FScattered clouds.12 mph55%30.09 "HgN/A
5:00 PM63 °FScattered clouds.13 mph52%30.09 "HgN/A
4:30 PM63 °FScattered clouds.12 mph52%30.09 "HgN/A
3:30 PM66 °FScattered clouds.16 mph46%30.09 "HgN/A
3:00 PM64 °FScattered clouds.16 mph49%30.09 "HgN/A
Weather by CustomWeather, © 2014

See weather overviewHow to use our weather pages